Miscellaneous Local Product
Issued by NWS North Platte, NE

Home | Current Version | Previous Version | Text Only | Print | Product List | Glossary On
Versions: 1 2 3 4 5 6 7 8 9 10 11 12 13 14 15 16 17 18 19 20 21 22 23 24 25 26 27 28 29 30 31 32 33 34 35 36 37 38 39 40 41 42 43 44 45 46 47 48 49 50
000
AXUS43 KLBF 042310
MISLBF


WESTERN AND NORTH CENTRAL NEBRASKA HOURLY WEATHER ROUNDUP
NATIONAL WEATHER SERVICE NORTH PLATTE NE
600 PM CDT MON MAY 04 2015

***STATIONS NOT REPORTING VARIABLES SUCH AS SKY/WEATHER OR
PRESSURE ARE PROVIDED BY THE NEBRASKA DEPARTMENT OF
ROADS...RAWS...AND APRS NETWORKS...AND ARE NOT UNDER
NATIONAL WEATHER SERVICE QUALITY CONTROL***

...OBSERVATIONS IN AND NEAR THE EASTERN PANHANDLE OF NEBRASKA...

CITY           SKY/WX    TMP DP  RH WIND       PRES   REMARKS
PINE RIDGE     CLOUDY    56  34  43 SE5       30.14S
CHADRON        CLOUDY    53  42  66 E10       30.12F
ALLIANCE       CLOUDY    60  33  36 E16G26    30.10F
SIDNEY         MOSUNNY   57  42  57 E16       30.11S
WHITECLAY        N/A     54  35  47 CALM        N/A
CRESCENT LAKE    N/A     57  28  32 E12G22      N/A
BIG SPRINGS      N/A     50  45  84 E15         N/A
$$

...OBSERVATIONS IN NORTH CENTRAL NEBRASKA...

CITY           SKY/WX    TMP DP  RH WIND       PRES   REMARKS
VALENTINE      CLOUDY    65  26  23 E12       30.12F
THEDFORD       CLOUDY    61  32  33 SE9       30.14S
AINSWORTH      CLOUDY    65  31  28 SE15G22   30.12S
O`NEILL        CLOUDY    65  36  34 E8        30.12F
ORD            CLOUDY    56  46  69 E9        30.10F
BROKEN BOW     LGT RAIN  53  49  86 NE7       30.10F
BROWNLEE         N/A     64  29  26 E15         N/A
VALENTINE NWR    N/A     63  29  27 E8G16       N/A
SPRINGVIEW       N/A     67  35  31 SE8G20      N/A
HALSEY           N/A     60  32  35 E9G17       N/A
BREWSTER         N/A     59  44  58 SE3         N/A
ROSE             N/A     63  38  39 E9          N/A
NEWPORT          N/A     65  37  35 E8          N/A
SARGENT          N/A     54  50  86 CALM        N/A
COMSTOCK         N/A     57  53  86 E12         N/A
EWING            N/A     63  45  51 SE3         N/A
$$

...OBSERVATIONS IN SOUTHWEST NEBRASKA AND FAR NORTHEAST COLORADO...

CITY           SKY/WX    TMP DP  RH WIND       PRES   REMARKS
WRAY           CLOUDY    55  47  72 NE14      30.07F
IMPERIAL       CLOUDY    50  45  83 NE17      30.10S
OGALLALA       CLOUDY    48  45  89 E8        30.12F
NORTH PLATTE   LGT RAIN  50  45  83 CALM      30.14S
MCCOOK         CLOUDY    56  48  74 N21       30.07R
LEXINGTON      CLOUDY    54  51  92 NE14      30.08F FOG
PAXTON           N/A     48  45  91 NE9         N/A
SUTHERLAND       N/A     44  42  93 E7          N/A
GOTHENBURG       N/A     51  47  85 NE6         N/A
CALLAWAY         N/A     50  48  93 E8          N/A
$$

...NORTH PLATTE AREA...

CITY           SKY/WX    TMP DP  RH WIND       PRES   REMARKS
AIRPORT        LGT RAIN  50  45  83 CALM      30.14S
DOWNTOWN         N/A     49  45  86 CALM        N/A
$$

...SOME WEATHER OBSERVATIONS FROM AROUND THE REGION...

CITY           SKY/WX    TMP DP  RH WIND       PRES   REMARKS
DENVER         PTSUNNY   59  48  67 E15       30.04F
LARAMIE        CLOUDY    48  41  76 SE17      30.10F
CHEYENNE       CLOUDY    53  43  68 S13       30.10S
SCOTTSBLUFF    CLOUDY    60  37  42 SE18      30.09S
RAPID CITY     CLOUDY    59  32  36 SE17G25   30.12F
PIERRE         CLOUDY    67  22  18 NE12      30.13F
WINNER         CLOUDY    68  25  19 NE10      30.12S
SIOUX FALLS    CLOUDY    70  28  21 E8        30.13R
OMAHA          LGT RAIN  61  58  90 NE14      30.06F
GRAND ISLAND   CLOUDY    54  52  93 N15       30.08F FOG
KANSAS CITY    CLOUDY    76  62  62 SW10      29.95F
WICHITA        PTSUNNY   82  59  45 S26G32    29.93F
HAYS           CLOUDY    66  57  72 NE8       29.97F
LIBERAL        CLOUDY    63  46  55 SE10G32   30.01R THUNDER
GOODLAND       PTSUNNY   63  49  60 NE12      30.04S
$$



USA.gov is the U.S. government's official web portal to all federal, state and local government web resources and services.